MMZ711 EGKK-LPFR

Flight info

Callsign MMZ711
Flight time N/A
Altitude 37000
Route NOVMA L620 SAM M195 LORKU DCT BALDA DCT ABUPI DCT SOTEX
Aircraft L101/H-SDFGHIRWXY/S

Departure

Time 2026-04-16 09:21
Airport London Gatwick Airport (EGKK)

Arrival

Time N/A
Airport Faro - Gago Coutinho International Airport (LPFR)
Time Latitude Longitude Altitude Speed Heading
2026-04-16 09:00 51.15545 -0.18469 206 ft 0 kts 168°
2026-04-16 09:10 51.15548 -0.18470 217 ft 2 kts 168°
2026-04-16 09:10 51.15573 -0.18479 208 ft 3 kts 168°
2026-04-16 09:10 51.15599 -0.18488 220 ft 4 kts 173°
2026-04-16 09:10 51.15622 -0.18482 220 ft 4 kts 227°
2026-04-16 09:11 51.15630 -0.18456 220 ft 4 kts 257°
2026-04-16 09:11 51.15635 -0.18424 215 ft 0 kts 257°
2026-04-16 09:14 51.15632 -0.18441 217 ft 4 kts 257°
2026-04-16 09:14 51.15624 -0.18501 214 ft 7 kts 257°
2026-04-16 09:14 51.15611 -0.18595 214 ft 10 kts 257°
2026-04-16 09:14 51.15595 -0.18710 218 ft 11 kts 257°
2026-04-16 09:15 51.15556 -0.18814 218 ft 12 kts 200°
2026-04-16 09:15 51.15471 -0.18800 213 ft 14 kts 167°
2026-04-16 09:15 51.15369 -0.18764 215 ft 16 kts 168°
2026-04-16 09:15 51.15255 -0.18725 213 ft 17 kts 168°
2026-04-16 09:16 51.15156 -0.18666 217 ft 14 kts 127°
2026-04-16 09:16 51.15161 -0.18506 216 ft 16 kts 78°
2026-04-16 09:16 51.15182 -0.18340 214 ft 15 kts 83°
2026-04-16 09:16 51.15200 -0.18169 213 ft 16 kts 78°
2026-04-16 09:17 51.15226 -0.17981 215 ft 19 kts 77°
2026-04-16 09:17 51.15255 -0.17775 213 ft 19 kts 77°
2026-04-16 09:17 51.15285 -0.17561 211 ft 19 kts 77°
2026-04-16 09:17 51.15290 -0.17377 214 ft 13 kts 124°
2026-04-16 09:18 51.15212 -0.17280 218 ft 15 kts 142°
2026-04-16 09:18 51.15189 -0.17128 217 ft 16 kts 78°
2026-04-16 09:18 51.15211 -0.16971 209 ft 10 kts 77°
2026-04-16 09:18 51.15215 -0.16943 211 ft 3 kts 77°
2026-04-16 09:19 51.15223 -0.16886 214 ft 7 kts 79°
2026-04-16 09:19 51.15201 -0.16808 217 ft 9 kts 144°
2026-04-16 09:19 51.15131 -0.16809 219 ft 12 kts 224°
2026-04-16 09:19 51.15111 -0.16880 217 ft 0 kts 257°
2026-04-16 09:20 51.15095 -0.16991 215 ft 44 kts 257°
2026-04-16 09:20 51.14961 -0.17990 210 ft 137 kts 260°
2026-04-16 09:20 51.14757 -0.19604 388 ft 143 kts 257°
2026-04-16 09:20 51.14573 -0.21259 749 ft 159 kts 257°
2026-04-16 09:21 51.14367 -0.23034 1212 ft 168 kts 257°
2026-04-16 09:21 51.14113 -0.24930 1526 ft 178 kts 256°
2026-04-16 09:21 51.13827 -0.26852 1881 ft 181 kts 254°
2026-04-16 09:21 51.13524 -0.28877 2189 ft 191 kts 255°
2026-04-16 09:22 51.13204 -0.30933 2487 ft 192 kts 255°
2026-04-16 09:22 51.12883 -0.32989 2747 ft 192 kts 255°
2026-04-16 09:22 51.12588 -0.35063 3004 ft 193 kts 257°
2026-04-16 09:22 51.12331 -0.37112 3444 ft 191 kts 258°
2026-04-16 09:23 51.12081 -0.39199 3959 ft 193 kts 258°
2026-04-16 09:23 51.11827 -0.41306 4477 ft 195 kts 258°
2026-04-16 09:23 51.11508 -0.43411 4989 ft 196 kts 250°
2026-04-16 09:23 51.10974 -0.45403 5500 ft 197 kts 244°
2026-04-16 09:24 51.10333 -0.47340 6033 ft 199 kts 241°
2026-04-16 09:24 51.09661 -0.49261 6548 ft 199 kts 241°
2026-04-16 09:24 51.09002 -0.51211 7040 ft 201 kts 243°
2026-04-16 09:24 51.08350 -0.53183 7537 ft 202 kts 243°
2026-04-16 09:25 51.07694 -0.55195 8077 ft 210 kts 243°
2026-04-16 09:25 51.07016 -0.57322 8593 ft 222 kts 244°
2026-04-16 09:25 51.06320 -0.59520 9066 ft 231 kts 244°
2026-04-16 09:25 51.05808 -0.61137 9487 ft 252 kts 244°
2026-04-16 09:26 51.04735 -0.64535 10121 ft 264 kts 244°
2026-04-16 09:26 51.03974 -0.67201 10549 ft 266 kts 249°
2026-04-16 09:26 51.03434 -0.70019 11004 ft 268 kts 257°
2026-04-16 09:26 51.03119 -0.72939 11496 ft 274 kts 262°
2026-04-16 09:27 51.02952 -0.75009 11853 ft 296 kts 262°
2026-04-16 09:27 51.02564 -0.79539 12497 ft 317 kts 261°
2026-04-16 09:27 51.02219 -0.83031 12996 ft 321 kts 261°
2026-04-16 09:27 51.01855 -0.86543 13534 ft 324 kts 261°
2026-04-16 09:28 51.01610 -0.88876 13897 ft 325 kts 260°
2026-04-16 09:28 51.01206 -0.92424 14373 ft 328 kts 259°
2026-04-16 09:28 51.00748 -0.95972 14909 ft 327 kts 258°
2026-04-16 09:28 51.00258 -0.99501 15632 ft 329 kts 258°
2026-04-16 09:29 50.99758 -1.03067 16399 ft 332 kts 258°
2026-04-16 09:29 50.99101 -1.07847 17448 ft 335 kts 258°
2026-04-16 09:29 50.98766 -1.10298 17980 ft 337 kts 258°
2026-04-16 09:29 50.98267 -1.13952 18742 ft 340 kts 258°
2026-04-16 09:30 50.97761 -1.17634 19460 ft 343 kts 258°
2026-04-16 09:30 50.97247 -1.21346 20191 ft 346 kts 258°
2026-04-16 09:30 50.96729 -1.25090 20948 ft 349 kts 258°
2026-04-16 09:30 50.96122 -1.28833 21696 ft 353 kts 250°
2026-04-16 09:31 50.94899 -1.32166 22406 ft 359 kts 231°
2026-04-16 09:31 50.92973 -1.34745 23235 ft 367 kts 220°
2026-04-16 09:31 50.90898 -1.37176 24047 ft 373 kts 223°
2026-04-16 09:31 50.88907 -1.39838 24760 ft 375 kts 226°
2026-04-16 09:32 50.86930 -1.42544 25487 ft 378 kts 224°
2026-04-16 09:32 50.84840 -1.45148 26219 ft 384 kts 221°
2026-04-16 09:32 50.82644 -1.47604 26973 ft 389 kts 220°
2026-04-16 09:32 50.80378 -1.50000 27752 ft 392 kts 219°
2026-04-16 09:33 50.78085 -1.52398 28564 ft 396 kts 220°
2026-04-16 09:33 50.75809 -1.54786 29383 ft 400 kts 220°
2026-04-16 09:33 50.73482 -1.57229 30231 ft 404 kts 220°
2026-04-16 09:33 50.71127 -1.59688 30969 ft 408 kts 220°
2026-04-16 09:34 50.68744 -1.62163 31723 ft 412 kts 220°
2026-04-16 09:34 50.66341 -1.64647 32490 ft 415 kts 221°
2026-04-16 09:34 50.63907 -1.67159 33294 ft 419 kts 221°
2026-04-16 09:34 50.61473 -1.69661 34048 ft 414 kts 221°
2026-04-16 09:35 50.59087 -1.72098 34793 ft 405 kts 221°
2026-04-16 09:35 50.56722 -1.74519 35542 ft 407 kts 221°
2026-04-16 09:35 50.54346 -1.76966 36299 ft 410 kts 220°
2026-04-16 09:35 50.51944 -1.79431 36986 ft 416 kts 220°
2026-04-16 09:36 50.49487 -1.81939 37102 ft 423 kts 220°
2026-04-16 09:36 50.44568 -1.86903 37111 ft 422 kts 219°
2026-04-16 09:37 50.39644 -1.91891 37095 ft 420 kts 219°
2026-04-16 09:37 50.34724 -1.96890 37123 ft 424 kts 219°
2026-04-16 09:38 50.29705 -2.01987 37126 ft 432 kts 219°
2026-04-16 09:38 50.24666 -2.07053 37120 ft 434 kts 219°
2026-04-16 09:39 50.19540 -2.12046 37127 ft 434 kts 218°
2026-04-16 09:39 50.14407 -2.17031 37121 ft 434 kts 218°
2026-04-16 09:40 50.09276 -2.22029 37125 ft 435 kts 218°
2026-04-16 09:40 50.04132 -2.27021 37128 ft 435 kts 218°
2026-04-16 09:41 49.99027 -2.31965 37138 ft 434 kts 218°
2026-04-16 09:41 49.93810 -2.36715 37108 ft 438 kts 212°
2026-04-16 09:42 49.88169 -2.40502 37135 ft 441 kts 210°
2026-04-16 09:42 49.82556 -2.44368 37140 ft 441 kts 211°
2026-04-16 09:43 49.76937 -2.48192 37139 ft 441 kts 210°
2026-04-16 09:43 49.71332 -2.51915 37114 ft 442 kts 210°
2026-04-16 09:44 49.65673 -2.55664 37139 ft 442 kts 210°
2026-04-16 09:44 49.60002 -2.59406 37149 ft 443 kts 210°
2026-04-16 09:45 49.54324 -2.63140 37142 ft 443 kts 209°
2026-04-16 09:45 49.48650 -2.66862 37086 ft 443 kts 209°
2026-04-16 09:46 49.42971 -2.70579 37181 ft 442 kts 209°
2026-04-16 09:46 49.37337 -2.74255 37296 ft 443 kts 209°
2026-04-16 09:47 49.31655 -2.77955 37391 ft 443 kts 209°
2026-04-16 09:47 49.25965 -2.81651 37465 ft 444 kts 208°
2026-04-16 09:48 49.20255 -2.85351 37583 ft 446 kts 208°
2026-04-16 09:48 49.14518 -2.89058 37486 ft 448 kts 208°
2026-04-16 09:48 49.11645 -2.90910 37324 ft 448 kts 208°
2026-04-16 09:49 49.08781 -2.92753 37229 ft 445 kts 208°
2026-04-16 09:49 49.03086 -2.96412 37185 ft 444 kts 208°
2026-04-16 09:50 48.97411 -3.00055 37208 ft 446 kts 208°
2026-04-16 09:50 48.91687 -3.03716 37209 ft 446 kts 208°
2026-04-16 09:51 48.85953 -3.07375 37220 ft 446 kts 208°
2026-04-16 09:51 48.80240 -3.11009 37202 ft 444 kts 208°
2026-04-16 09:52 48.74550 -3.14622 37202 ft 444 kts 208°
2026-04-16 09:52 48.68848 -3.18234 37225 ft 444 kts 208°
2026-04-16 09:53 48.63185 -3.21812 37203 ft 444 kts 208°
2026-04-16 09:53 48.57484 -3.25407 37205 ft 444 kts 208°
2026-04-16 09:54 48.51769 -3.29000 37201 ft 445 kts 208°
2026-04-16 09:54 48.46045 -3.32588 37203 ft 445 kts 208°
2026-04-16 09:55 48.40319 -3.36170 37211 ft 445 kts 208°
2026-04-16 09:55 48.34599 -3.39741 37202 ft 446 kts 207°
2026-04-16 09:56 48.28869 -3.43307 37214 ft 446 kts 207°
2026-04-16 09:56 48.23144 -3.46863 37215 ft 444 kts 207°
2026-04-16 09:57 48.17464 -3.50380 37211 ft 444 kts 207°
2026-04-16 09:57 48.11745 -3.53917 37214 ft 444 kts 207°
2026-04-16 09:58 48.06019 -3.57446 37216 ft 445 kts 207°
2026-04-16 09:58 48.00294 -3.60968 37217 ft 445 kts 207°
2026-04-16 09:59 47.94599 -3.64462 37201 ft 445 kts 207°
2026-04-16 09:59 47.88872 -3.67968 37228 ft 445 kts 207°
2026-04-16 10:00 47.83133 -3.71473 37225 ft 445 kts 207°
2026-04-16 10:00 47.77394 -3.74968 37234 ft 445 kts 207°
2026-04-16 10:01 47.68790 -3.80195 37224 ft 445 kts 206°
2026-04-16 10:01 47.63103 -3.83637 37233 ft 444 kts 206°
2026-04-16 10:02 47.57383 -3.87093 37232 ft 444 kts 206°
2026-04-16 10:02 47.51662 -3.90541 37211 ft 444 kts 206°
2026-04-16 10:03 47.45926 -3.93990 37233 ft 444 kts 206°
2026-04-16 10:03 47.40186 -3.97433 37237 ft 445 kts 206°
2026-04-16 10:04 47.34448 -4.00867 37236 ft 445 kts 206°
2026-04-16 10:04 47.28751 -4.04269 37235 ft 445 kts 206°
2026-04-16 10:05 47.23005 -4.07691 37242 ft 446 kts 206°
2026-04-16 10:05 47.17260 -4.11105 37245 ft 446 kts 206°
2026-04-16 10:06 47.11511 -4.14514 37248 ft 445 kts 206°
2026-04-16 10:06 47.05774 -4.17906 37244 ft 444 kts 205°
2026-04-16 10:07 47.00029 -4.21295 37247 ft 445 kts 205°
2026-04-16 10:07 46.94289 -4.24674 37243 ft 445 kts 205°
2026-04-16 10:08 46.88573 -4.28031 37228 ft 445 kts 205°
2026-04-16 10:08 46.82837 -4.31393 37251 ft 445 kts 205°
2026-04-16 10:09 46.77092 -4.34751 37252 ft 445 kts 205°
2026-04-16 10:09 46.71332 -4.38111 37253 ft 445 kts 205°
2026-04-16 10:10 46.65583 -4.41456 37250 ft 445 kts 205°
2026-04-16 10:10 46.59827 -4.44797 37252 ft 445 kts 205°
2026-04-16 10:11 46.54077 -4.48129 37256 ft 445 kts 205°
2026-04-16 10:11 46.48323 -4.51453 37257 ft 445 kts 205°
2026-04-16 10:12 46.42566 -4.54774 37253 ft 445 kts 205°
2026-04-16 10:12 46.37781 -4.57526 37253 ft 445 kts 205°
2026-04-16 10:13 46.31093 -4.61366 37253 ft 445 kts 205°
2026-04-16 10:13 46.25330 -4.64667 37246 ft 445 kts 205°
2026-04-16 10:14 46.19562 -4.67963 37251 ft 445 kts 205°
2026-04-16 10:14 46.13822 -4.71235 37253 ft 445 kts 205°
2026-04-16 10:15 46.08058 -4.74514 37256 ft 445 kts 205°
2026-04-16 10:15 46.02286 -4.77789 37257 ft 445 kts 204°
2026-04-16 10:16 45.97497 -4.80501 37255 ft 444 kts 204°
2026-04-16 10:16 45.91738 -4.83755 37255 ft 444 kts 204°
2026-04-16 10:17 45.86010 -4.86985 37240 ft 444 kts 204°
2026-04-16 10:17 45.80251 -4.90226 37253 ft 445 kts 204°
2026-04-16 10:18 45.74485 -4.93464 37258 ft 445 kts 204°
2026-04-16 10:18 45.68711 -4.96698 37258 ft 445 kts 204°
2026-04-16 10:19 45.62941 -4.99923 37252 ft 446 kts 204°
2026-04-16 10:19 45.57148 -5.03154 37263 ft 446 kts 204°
2026-04-16 10:20 45.51364 -5.06373 37274 ft 446 kts 204°
2026-04-16 10:20 45.45625 -5.09559 37240 ft 445 kts 204°
2026-04-16 10:21 45.39849 -5.12758 37271 ft 445 kts 204°
2026-04-16 10:21 45.34071 -5.15953 37270 ft 445 kts 204°
2026-04-16 10:22 45.28290 -5.19141 37252 ft 446 kts 204°
2026-04-16 10:22 45.22494 -5.22331 37256 ft 446 kts 204°
2026-04-16 10:23 45.16741 -5.25491 37254 ft 446 kts 204°
2026-04-16 10:23 45.10934 -5.28673 37256 ft 446 kts 204°
2026-04-16 10:24 45.05142 -5.31839 37249 ft 446 kts 204°
2026-04-16 10:24 44.99326 -5.35013 37255 ft 447 kts 204°
2026-04-16 10:25 44.93560 -5.38151 37257 ft 446 kts 204°
2026-04-16 10:25 44.87772 -5.41295 37255 ft 446 kts 204°
2026-04-16 10:26 44.81971 -5.44440 37249 ft 447 kts 204°
2026-04-16 10:26 44.76156 -5.47585 37255 ft 447 kts 204°
2026-04-16 10:27 44.70337 -5.50726 37253 ft 448 kts 203°
2026-04-16 10:27 44.64522 -5.53857 37253 ft 448 kts 203°
2026-04-16 10:28 44.58752 -5.57130 37254 ft 447 kts 205°
2026-04-16 10:28 44.52984 -5.60432 37253 ft 447 kts 204°
2026-04-16 10:29 44.47237 -5.63764 37239 ft 447 kts 206°
2026-04-16 10:29 44.41536 -5.67241 37251 ft 447 kts 206°
2026-04-16 10:30 44.35834 -5.70735 37254 ft 447 kts 206°
2026-04-16 10:30 44.30169 -5.74207 37251 ft 447 kts 206°
2026-04-16 10:31 44.24470 -5.77699 37244 ft 447 kts 206°
2026-04-16 10:31 44.18758 -5.81195 37247 ft 448 kts 206°
2026-04-16 10:32 44.13046 -5.84683 37243 ft 448 kts 206°
2026-04-16 10:32 44.07328 -5.88167 37238 ft 448 kts 206°
2026-04-16 10:33 44.01606 -5.91646 37243 ft 449 kts 206°
2026-04-16 10:33 43.95912 -5.95102 37246 ft 449 kts 206°
2026-04-16 10:34 43.90186 -5.98569 37233 ft 449 kts 206°
2026-04-16 10:34 43.84459 -6.02029 37230 ft 449 kts 206°
2026-04-16 10:35 43.78714 -6.05495 37237 ft 451 kts 206°
2026-04-16 10:35 43.72953 -6.08962 37243 ft 451 kts 206°
2026-04-16 10:36 43.67201 -6.12413 37232 ft 451 kts 206°
2026-04-16 10:36 43.61439 -6.15868 37221 ft 452 kts 207°
2026-04-16 10:37 43.55673 -6.19317 37236 ft 452 kts 207°
2026-04-16 10:37 43.49896 -6.22764 37233 ft 452 kts 207°
2026-04-16 10:38 43.44155 -6.26180 37217 ft 452 kts 207°
2026-04-16 10:38 43.38350 -6.29631 37219 ft 454 kts 207°
2026-04-16 10:39 43.32541 -6.33077 37205 ft 454 kts 207°
2026-04-16 10:39 43.26736 -6.36511 37200 ft 454 kts 207°
2026-04-16 10:40 43.20927 -6.39940 37196 ft 455 kts 207°
2026-04-16 10:40 43.15131 -6.43357 37192 ft 456 kts 207°
2026-04-16 10:41 43.09301 -6.46783 37207 ft 456 kts 207°
2026-04-16 10:41 43.03458 -6.50215 37169 ft 456 kts 207°
2026-04-16 10:42 42.97607 -6.53653 37184 ft 458 kts 207°
2026-04-16 10:42 42.91743 -6.57073 37190 ft 458 kts 207°
2026-04-16 10:43 42.85891 -6.60486 37188 ft 457 kts 207°
2026-04-16 10:43 42.80031 -6.63883 37176 ft 459 kts 207°
2026-04-16 10:44 42.74167 -6.67295 37187 ft 461 kts 207°
2026-04-16 10:44 42.68258 -6.70726 37192 ft 461 kts 207°
2026-04-16 10:45 42.62349 -6.74149 37193 ft 461 kts 207°
2026-04-16 10:45 42.56440 -6.77556 37192 ft 461 kts 207°
2026-04-16 10:46 42.50530 -6.80958 37193 ft 461 kts 207°
2026-04-16 10:46 42.44664 -6.84330 37199 ft 461 kts 207°
2026-04-16 10:47 42.38759 -6.87716 37186 ft 459 kts 207°
2026-04-16 10:47 42.32865 -6.91088 37192 ft 460 kts 207°
2026-04-16 10:48 42.26996 -6.94437 37196 ft 454 kts 207°
2026-04-16 10:48 42.21182 -6.97750 37197 ft 453 kts 207°
2026-04-16 10:49 42.15409 -7.01038 37206 ft 454 kts 207°
2026-04-16 10:49 42.09594 -7.04339 37194 ft 454 kts 207°
2026-04-16 10:50 42.03774 -7.07634 37198 ft 453 kts 207°
2026-04-16 10:50 41.97958 -7.10926 37197 ft 453 kts 207°
2026-04-16 10:51 41.92135 -7.14212 37207 ft 454 kts 207°
2026-04-16 10:51 41.86299 -7.17499 37206 ft 454 kts 207°
2026-04-16 10:52 41.80455 -7.20784 37206 ft 455 kts 207°
2026-04-16 10:52 41.74583 -7.23820 37174 ft 457 kts 200°
2026-04-16 10:53 41.68325 -7.25603 37208 ft 460 kts 195°
2026-04-16 10:53 41.62071 -7.27397 37216 ft 459 kts 198°
2026-04-16 10:54 41.55836 -7.29306 37216 ft 459 kts 197°
2026-04-16 10:54 41.49587 -7.31168 37205 ft 460 kts 197°
2026-04-16 10:55 41.43377 -7.32968 37207 ft 460 kts 195°
2026-04-16 10:55 41.37070 -7.34506 37209 ft 461 kts 194°
2026-04-16 10:56 41.30754 -7.36032 37203 ft 461 kts 195°
2026-04-16 10:56 41.24432 -7.37569 37213 ft 461 kts 194°
2026-04-16 10:57 41.18111 -7.39097 37211 ft 462 kts 194°
2026-04-16 10:57 41.11778 -7.40628 37214 ft 462 kts 194°
2026-04-16 10:58 41.05457 -7.42150 37212 ft 461 kts 194°
2026-04-16 10:58 40.99136 -7.43670 37211 ft 461 kts 194°
2026-04-16 10:59 40.92819 -7.45188 37208 ft 461 kts 194°
2026-04-16 10:59 40.86477 -7.46715 37206 ft 473 kts 194°
2026-04-16 11:00 40.79980 -7.48271 37213 ft 475 kts 194°
2026-04-16 11:00 40.73460 -7.49828 37223 ft 476 kts 194°
2026-04-16 11:01 40.68041 -7.51120 37210 ft 476 kts 194°
2026-04-16 11:01 40.61512 -7.52675 37195 ft 477 kts 194°
2026-04-16 11:02 40.54974 -7.54228 37213 ft 477 kts 194°
2026-04-16 11:02 40.48441 -7.55776 37214 ft 477 kts 194°
2026-04-16 11:03 40.41908 -7.57323 37215 ft 477 kts 194°
2026-04-16 11:04 40.32110 -7.59638 37198 ft 477 kts 194°
2026-04-16 11:04 40.25625 -7.61165 37203 ft 475 kts 194°
2026-04-16 11:05 40.19118 -7.62696 37203 ft 475 kts 194°
2026-04-16 11:05 40.12611 -7.64222 37208 ft 475 kts 194°
2026-04-16 11:06 40.06109 -7.65746 37206 ft 475 kts 194°
2026-04-16 11:06 39.99610 -7.67266 37196 ft 475 kts 194°
2026-04-16 11:07 39.93098 -7.68787 37201 ft 475 kts 194°
2026-04-16 11:07 39.86624 -7.70297 37204 ft 475 kts 194°
2026-04-16 11:08 39.80111 -7.71812 37204 ft 475 kts 194°
2026-04-16 11:08 39.73603 -7.73324 37197 ft 475 kts 193°
2026-04-16 11:09 39.67084 -7.74836 37205 ft 476 kts 193°
2026-04-16 11:09 39.60559 -7.76346 37206 ft 475 kts 193°
2026-04-16 11:10 39.54074 -7.77844 37190 ft 475 kts 193°
2026-04-16 11:10 39.47560 -7.79347 37201 ft 475 kts 193°
2026-04-16 11:11 39.41052 -7.80845 37200 ft 475 kts 193°
2026-04-16 11:11 39.34551 -7.82339 37214 ft 475 kts 193°
2026-04-16 11:12 39.28043 -7.83833 37202 ft 475 kts 193°
2026-04-16 11:12 39.21539 -7.85322 37205 ft 475 kts 193°